Location: Sweet Grass
(48.9965°N, 111.9649°W)
Time: 08:41:51
(UTC+00:00)

EO-79 - Pass Details

Date: 06 April 2023
Orbit: 578 x 593 km, 98.0° (Epoch: 03 June)

Event Time Altitude Azimuth Distance (km) Brightness Sun altitude
Rises 09:40:17 0° 15° (NNE) 2,826 ? -27.7°
Reaches altitude 10° 09:42:28 10° 17° (NNE) 1,918 ? -27.5°
Enters shadow 09:45:40 51° 33° (NNE) 740 ? -27.2°
